Time,TemperatureF,DewpointF,PressureIn,WindDirection,WindDirectionDegrees,WindSpeedMPH,WindSpeedGustMPH,Humidity,HourlyPrecipIn,Conditions,Clouds,dailyrainin,SoftwareType,DateUTC
2013-02-07 00:13:00,41.9,40.6,29.84,ESE,112,0.0,-999.0,95,-99.99,,,0.00,Acu-Link.com,2013-02-07 06:13:00,
2013-02-07 00:28:00,42.1,40.5,29.84,ESE,112,3.7,-999.0,94,-99.99,,,0.00,Acu-Link.com,2013-02-07 06:28:00,
2013-02-07 00:43:00,42.1,40.5,29.84,ESE,112,0.0,-999.0,94,-99.99,,,0.00,Acu-Link.com,2013-02-07 06:43:00,
2013-02-07 00:59:00,41.9,40.3,29.84,ESE,112,0.0,-999.0,94,-99.99,,,0.00,Acu-Link.com,2013-02-07 06:59:00,
2013-02-07 01:14:00,41.7,40.1,29.84,ESE,112,0.0,-999.0,94,-99.99,,,0.00,Acu-Link.com,2013-02-07 07:14:00,
2013-02-07 01:29:00,42.1,41.0,29.84,ESE,112,0.0,-999.0,96,-99.99,,,0.00,Acu-Link.com,2013-02-07 07:29:00,
2013-02-07 01:44:00,42.3,41.0,29.83,ESE,112,0.0,-999.0,95,-99.99,,,0.00,Acu-Link.com,2013-02-07 07:44:00,
2013-02-07 01:59:00,43.5,40.8,29.84,SE,135,4.7,-999.0,90,-99.99,,,0.00,Acu-Link.com,2013-02-07 07:59:00,
2013-02-07 02:14:00,43.3,41.4,29.83,SE,135,3.7,-999.0,93,-99.99,,,0.00,Acu-Link.com,2013-02-07 08:14:00,
2013-02-07 02:29:00,43.0,41.1,29.82,SE,135,0.0,-999.0,93,-99.99,,,0.00,Acu-Link.com,2013-02-07 08:29:00,
2013-02-07 02:44:00,42.8,41.2,29.82,SSE,157,0.0,-999.0,94,-99.99,,,0.00,Acu-Link.com,2013-02-07 08:44:00,
2013-02-07 02:59:00,42.4,41.3,29.82,ESE,112,0.0,-999.0,96,-99.99,,,0.00,Acu-Link.com,2013-02-07 08:59:00,
2013-02-07 03:14:00,43.0,41.4,29.81,ESE,112,4.2,-999.0,94,-99.99,,,0.00,Acu-Link.com,2013-02-07 09:14:00,
2013-02-07 03:30:00,42.8,41.2,29.81,SE,135,0.0,-999.0,94,-99.99,,,0.00,Acu-Link.com,2013-02-07 09:30:00,
2013-02-07 03:45:00,42.3,41.2,29.81,SE,135,0.0,-999.0,96,-99.99,,,0.00,Acu-Link.com,2013-02-07 09:45:00,
2013-02-07 04:00:00,41.9,41.4,29.80,SE,135,0.0,-999.0,98,-99.99,,,0.00,Acu-Link.com,2013-02-07 10:00:00,
2013-02-07 04:15:00,41.7,40.9,29.79,SE,135,0.0,-999.0,97,-99.99,,,0.00,Acu-Link.com,2013-02-07 10:15:00,
2013-02-07 04:30:00,41.4,41.1,29.80,SE,135,0.0,-999.0,99,-99.99,,,0.00,Acu-Link.com,2013-02-07 10:30:00,
2013-02-07 04:45:00,41.2,40.9,29.78,SE,135,2.7,-999.0,99,-99.99,,,0.00,Acu-Link.com,2013-02-07 10:45:00,
2013-02-07 05:00:00,41.4,41.1,29.79,SE,135,0.0,-999.0,99,-99.99,,,0.00,Acu-Link.com,2013-02-07 11:00:00,
2013-02-07 05:15:00,41.4,41.1,29.80,SE,135,0.0,-999.0,99,-99.99,,,0.00,Acu-Link.com,2013-02-07 11:15:00,
2013-02-07 05:30:00,41.4,41.1,29.79,SE,135,0.0,-999.0,99,-99.99,,,0.00,Acu-Link.com,2013-02-07 11:30:00,
2013-02-07 05:46:00,41.9,41.4,29.78,ESE,112,4.7,-999.0,98,-99.99,,,0.00,Acu-Link.com,2013-02-07 11:46:00,
2013-02-07 06:01:00,42.4,41.1,29.78,ESE,112,2.7,-999.0,95,-99.99,,,0.00,Acu-Link.com,2013-02-07 12:01:00,
2013-02-07 06:16:00,42.6,41.0,29.78,SE,135,0.0,-999.0,94,-99.99,,,0.00,Acu-Link.com,2013-02-07 12:16:00,
2013-02-07 06:31:00,41.4,39.8,29.77,SE,135,0.0,-999.0,94,-99.99,,,0.00,Acu-Link.com,2013-02-07 12:31:00,
2013-02-07 06:46:00,40.3,39.5,29.77,SE,135,0.0,-999.0,97,-99.99,,,0.00,Acu-Link.com,2013-02-07 12:46:00,
2013-02-07 07:01:00,39.7,38.9,29.78,SE,135,1.1,-999.0,97,-99.99,,,0.00,Acu-Link.com,2013-02-07 13:01:00,
2013-02-07 07:16:00,39.4,38.9,29.77,SSE,157,0.0,-999.0,98,-99.99,,,0.00,Acu-Link.com,2013-02-07 13:16:00,
2013-02-07 07:31:00,39.7,39.4,29.76,SSE,157,1.7,-999.0,99,-99.99,,,0.00,Acu-Link.com,2013-02-07 13:31:00,
2013-02-07 07:46:00,41.0,40.7,29.76,SSE,157,2.2,-999.0,99,-99.99,,,0.00,Acu-Link.com,2013-02-07 13:46:00,
2013-02-07 08:02:00,43.2,41.6,29.77,SE,135,3.7,-999.0,94,-99.99,,,0.00,Acu-Link.com,2013-02-07 14:02:00,
2013-02-07 08:17:00,44.1,41.9,29.76,SE,135,7.3,-999.0,92,-99.99,,,0.00,Acu-Link.com,2013-02-07 14:17:00,
2013-02-07 08:32:00,46.0,42.6,29.76,ESE,112,3.7,-999.0,88,-99.99,,,0.00,Acu-Link.com,2013-02-07 14:32:00,
2013-02-07 08:47:00,48.0,43.7,29.77,SE,135,3.7,-999.0,85,-99.99,,,0.00,Acu-Link.com,2013-02-07 14:47:00,
2013-02-07 09:02:00,49.6,44.3,29.77,SE,135,5.3,-999.0,82,-99.99,,,0.00,Acu-Link.com,2013-02-07 15:02:00,
2013-02-07 09:17:00,50.7,45.4,29.78,SE,135,5.8,-999.0,82,-99.99,,,0.00,Acu-Link.com,2013-02-07 15:17:00,
2013-02-07 09:32:00,52.2,46.5,29.77,SE,135,4.2,-999.0,81,-99.99,,,0.00,Acu-Link.com,2013-02-07 15:32:00,
2013-02-07 09:47:00,53.6,48.6,29.76,ESE,112,5.8,-999.0,83,-99.99,,,0.00,Acu-Link.com,2013-02-07 15:47:00,
2013-02-07 10:02:00,55.4,49.3,29.75,SE,135,6.3,-999.0,80,-99.99,,,0.00,Acu-Link.com,2013-02-07 16:02:00,
2013-02-07 10:18:00,57.2,51.8,29.75,SE,135,5.8,-999.0,82,-99.99,,,0.00,Acu-Link.com,2013-02-07 16:18:00,
2013-02-07 10:33:00,59.0,51.4,29.75,SE,135,7.3,-999.0,76,-99.99,,,0.00,Acu-Link.com,2013-02-07 16:33:00,
2013-02-07 10:48:00,60.1,52.5,29.74,SE,135,4.2,-999.0,76,-99.99,,,0.00,Acu-Link.com,2013-02-07 16:48:00,
2013-02-07 11:03:00,62.2,53.1,29.74,SE,135,9.4,-999.0,72,-99.99,,,0.00,Acu-Link.com,2013-02-07 17:03:00,
2013-02-07 11:18:00,63.3,53.7,29.73,SE,135,7.8,-999.0,71,-99.99,,,0.00,Acu-Link.com,2013-02-07 17:18:00,
2013-02-07 11:33:00,63.3,53.7,29.72,SSE,157,6.8,-999.0,71,-99.99,,,0.00,Acu-Link.com,2013-02-07 17:33:00,
2013-02-07 11:48:00,65.5,55.4,29.71,SSW,202,6.3,-999.0,70,-99.99,,,0.00,Acu-Link.com,2013-02-07 17:48:00,
2013-02-07 12:03:00,65.8,55.7,29.70,SSE,157,6.8,-999.0,70,-99.99,,,0.00,Acu-Link.com,2013-02-07 18:03:00,
2013-02-07 12:18:00,67.5,57.8,29.68,SE,135,7.8,-999.0,71,-99.99,,,0.00,Acu-Link.com,2013-02-07 18:18:00,
2013-02-07 12:34:00,68.4,58.2,29.68,SW,225,2.7,-999.0,70,-99.99,,,0.00,Acu-Link.com,2013-02-07 18:34:00,
2013-02-07 12:49:00,69.8,59.2,29.67,South,180,2.7,-999.0,69,-99.99,,,0.00,Acu-Link.com,2013-02-07 18:49:00,
2013-02-07 13:04:00,70.2,59.1,29.66,NE,45,1.7,-999.0,68,-99.99,,,0.00,Acu-Link.com,2013-02-07 19:04:00,
2013-02-07 13:19:00,70.3,59.2,29.66,SE,135,3.2,-999.0,68,-99.99,,,0.00,Acu-Link.com,2013-02-07 19:19:00,
2013-02-07 13:34:00,72.0,60.0,29.65,SSW,202,1.7,-999.0,66,-99.99,,,0.00,Acu-Link.com,2013-02-07 19:34:00,
2013-02-07 13:49:00,70.2,59.1,29.65,SE,135,5.3,-999.0,68,-99.99,,,0.00,Acu-Link.com,2013-02-07 19:49:00,
2013-02-07 14:04:00,70.5,59.4,29.64,SSE,157,5.3,-999.0,68,-99.99,,,0.00,Acu-Link.com,2013-02-07 20:04:00,
2013-02-07 14:19:00,70.5,59.4,29.63,NW,315,1.1,-999.0,68,-99.99,,,0.00,Acu-Link.com,2013-02-07 20:19:00,
2013-02-07 14:34:00,68.9,59.9,29.64,East,90,0.0,-999.0,73,-99.99,,,0.00,Acu-Link.com,2013-02-07 20:34:00,
2013-02-07 14:50:00,70.5,59.0,29.63,SE,135,1.1,-999.0,67,-99.99,,,0.00,Acu-Link.com,2013-02-07 20:50:00,
2013-02-07 15:05:00,67.6,57.9,29.62,SSE,157,2.7,-999.0,71,-99.99,,,0.00,Acu-Link.com,2013-02-07 21:05:00,
2013-02-07 15:20:00,66.4,58.6,29.62,ESE,112,0.0,-999.0,76,-99.99,,,0.00,Acu-Link.com,2013-02-07 21:20:00,
2013-02-07 15:35:00,66.4,57.9,29.62,ESE,112,0.0,-999.0,74,-99.99,,,0.00,Acu-Link.com,2013-02-07 21:35:00,
2013-02-07 15:50:00,66.6,58.0,29.61,SE,135,1.7,-999.0,74,-99.99,,,0.00,Acu-Link.com,2013-02-07 21:50:00,
2013-02-07 16:05:00,66.0,58.2,29.61,South,180,0.0,-999.0,76,-99.99,,,0.00,Acu-Link.com,2013-02-07 22:05:00,
2013-02-07 16:20:00,64.4,58.4,29.61,South,180,0.0,-999.0,81,-99.99,,,0.00,Acu-Link.com,2013-02-07 22:20:00,
2013-02-07 16:35:00,63.0,57.8,29.61,South,180,0.0,-999.0,83,-99.99,,,0.00,Acu-Link.com,2013-02-07 22:35:00,
2013-02-07 16:50:00,62.6,57.7,29.61,South,180,0.0,-999.0,84,-99.99,,,0.00,Acu-Link.com,2013-02-07 22:50:00,
2013-02-07 17:06:00,60.4,56.2,29.62,South,180,0.0,-999.0,86,-99.99,,,0.00,Acu-Link.com,2013-02-07 23:06:00,
2013-02-07 17:21:00,57.7,55.1,29.62,South,180,0.0,-999.0,91,-99.99,,,0.00,Acu-Link.com,2013-02-07 23:21:00,
2013-02-07 17:36:00,55.8,53.5,29.62,South,180,0.0,-999.0,92,-99.99,,,0.00,Acu-Link.com,2013-02-07 23:36:00,
2013-02-07 17:51:00,55.6,53.9,29.62,South,180,0.0,-999.0,94,-99.99,,,0.00,Acu-Link.com,2013-02-07 23:51:00,
2013-02-07 18:06:00,54.3,53.2,29.61,South,180,0.0,-999.0,96,-99.99,,,0.00,Acu-Link.com,2013-02-08 00:06:00,
2013-02-07 18:21:00,54.3,53.2,29.62,South,180,0.0,-999.0,96,-99.99,,,0.00,Acu-Link.com,2013-02-08 00:21:00,
2013-02-07 18:36:00,54.5,53.9,29.61,SSE,157,2.7,-999.0,98,-99.99,,,0.00,Acu-Link.com,2013-02-08 00:36:00,
2013-02-07 18:51:00,53.2,52.6,29.62,SSE,157,0.0,-999.0,98,-99.99,,,0.00,Acu-Link.com,2013-02-08 00:51:00,
2013-02-07 19:06:00,51.3,51.0,29.62,SSE,157,0.0,-999.0,99,-99.99,,,0.00,Acu-Link.com,2013-02-08 01:06:00,
2013-02-07 19:21:00,51.3,51.0,29.62,SSE,157,0.0,-999.0,99,-99.99,,,0.00,Acu-Link.com,2013-02-08 01:21:00,
2013-02-07 19:37:00,52.0,51.7,29.62,SSE,157,0.0,-999.0,99,-99.99,,,0.00,Acu-Link.com,2013-02-08 01:37:00,
2013-02-07 19:52:00,55.0,54.7,29.62,SSE,157,1.7,-999.0,99,-99.99,,,0.00,Acu-Link.com,2013-02-08 01:52:00,
2013-02-07 20:07:00,55.4,55.1,29.62,SSE,157,0.0,-999.0,99,-99.99,,,0.00,Acu-Link.com,2013-02-08 02:07:00,
2013-02-07 20:22:00,55.9,55.6,29.62,South,180,1.7,-999.0,99,-99.99,,,0.00,Acu-Link.com,2013-02-08 02:22:00,
2013-02-07 20:37:00,56.1,55.8,29.62,South,180,0.0,-999.0,99,-99.99,,,0.00,Acu-Link.com,2013-02-08 02:37:00,
2013-02-07 20:52:00,56.3,56.0,29.62,South,180,2.7,-999.0,99,-99.99,,,0.00,Acu-Link.com,2013-02-08 02:52:00,
2013-02-07 21:07:00,56.1,55.8,29.61,South,180,2.2,-999.0,99,-99.99,,,0.00,Acu-Link.com,2013-02-08 03:07:00,
2013-02-07 21:22:00,55.4,55.1,29.62,South,180,0.0,-999.0,99,-99.99,,,0.00,Acu-Link.com,2013-02-08 03:22:00,
2013-02-07 21:37:00,55.4,55.1,29.61,SSW,202,0.0,-999.0,99,-99.99,,,0.00,Acu-Link.com,2013-02-08 03:37:00,
2013-02-07 21:53:00,55.2,54.9,29.62,South,180,0.0,-999.0,99,-99.99,,,0.00,Acu-Link.com,2013-02-08 03:53:00,
2013-02-07 22:08:00,55.0,54.7,29.62,South,180,0.0,-999.0,99,-99.99,,,0.00,Acu-Link.com,2013-02-08 04:08:00,
2013-02-07 22:23:00,54.9,54.6,29.61,South,180,0.0,-999.0,99,-99.99,,,0.00,Acu-Link.com,2013-02-08 04:23:00,
2013-02-07 22:38:00,54.5,54.2,29.61,South,180,0.0,-999.0,99,-99.99,,,0.00,Acu-Link.com,2013-02-08 04:38:00,
2013-02-07 22:53:00,53.6,53.3,29.61,South,180,0.0,-999.0,99,-99.99,,,0.00,Acu-Link.com,2013-02-08 04:53:00,
2013-02-07 23:08:00,53.2,52.9,29.60,South,180,0.0,-999.0,99,-99.99,,,0.00,Acu-Link.com,2013-02-08 05:08:00,
2013-02-07 23:23:00,52.9,52.6,29.61,South,180,0.0,-999.0,99,-99.99,,,0.00,Acu-Link.com,2013-02-08 05:23:00,
2013-02-07 23:38:00,52.5,52.2,29.62,South,180,0.0,-999.0,99,-99.99,,,0.00,Acu-Link.com,2013-02-08 05:38:00,
2013-02-07 23:53:00,52.3,13.5,29.63,South,180,0.0,-999.0,21,-99.99,,,0.02,Acu-Link.com,2013-02-08 05:53:00,